Moab, UT

7:02 AM MDT on August 23, 2017 (GMT -0600)
Canyonlands

Weather History for KCNY - December, 2013

Change the Weather History Date:

Tuesday, December 24, 2013

  Actual Average Record
Temperature  
Mean Temperature 19 °F 25 °F  
Max Temperature 32 °F 36 °F 65 °F (1955)
Min Temperature 6 °F 14 °F -4 °F (2008)
Degree Days  
Heating Degree Days 46 40  
Month to date heating degree days 1224 906  
Since 1 July heating degree days 2480 2115  
Cooling Degree Days 0 0  
Month to date cooling degree days 0 0  
Year to date cooling degree days 1643 1289  
Moisture  
Dew Point 13 °F    
Average Humidity 89    
Maximum Humidity 100    
Minimum Humidity 78    
Precipitation  
Precipitation 0.00 in 0.02 in 0.58 in (1962)
Month to date precipitation 0.62 0.43  
Year to date precipitation 7.37 8.63  
Sea Level Pressure  
Sea Level Pressure 30.43 in    
Wind  
Wind Speed 3 mph (WNW)    
Max Wind Speed 15 mph    
Max Gust Speed 17 mph    
Visibility 6 miles    
Events Fog    
T = Trace of Precipitation, MM = Missing Value Source: NWS Daily Summary

Daily Weather History Graph

Daily Weather History Graph

Search for Another Location

Airport or City:

Trip Planner

Search our weather history database for the weather conditions in past years. The results will help you decide how hot, cold, wet, or windy it might be!

Date:

Astronomy

Dec. 24, 2013 Rise Set
Actual Time 7:35 AM MST 5:02 PM MST
Civil Twilight 7:05 AM MST 5:32 PM MST
Nautical Twilight 6:31 AM MST 6:05 PM MST
Astronomical Twilight 5:59 AM MST 6:38 PM MST
Moon No Moon Rise 11:34 AM MST (12/24)
Length of Visible Light 10h 27m
Length of Day
9h 27m
Waning Gibbous, 58% of the Moon is Illuminated
Dec 24
Waning Gibbous
Dec 25
Last Quarter
Jan 1
New
Jan 7
First Quarter
Jan 15
Full

Hourly Weather History & Observations

Time (MST) Temp. Windchill Dew Point Humidity Pressure Visibility Wind Dir Wind Speed Gust Speed Precip Events Conditions
12:53 AM 17.1 °F - 16.0 °F 96% 30.52 in 10.0 mi Calm Calm - N/A   Clear
1:53 AM 16.0 °F 10.4 °F 14.0 °F 92% 30.51 in 10.0 mi West 3.5 mph - N/A   Clear
2:53 AM 14.0 °F 8.2 °F 10.9 °F 88% 30.50 in 10.0 mi WSW 3.5 mph - N/A   Clear
3:53 AM 14.0 °F - 12.9 °F 95% 30.49 in 10.0 mi Calm Calm - N/A   Clear
4:53 AM 10.0 °F 1.8 °F 8.1 °F 92% 30.51 in 10.0 mi West 4.6 mph - N/A   Clear
5:27 AM 9.0 °F 2.4 °F 6.1 °F 88% 30.33 in 10.0 mi West 3.5 mph - N/A   Scattered Clouds
5:33 AM 12.0 °F 5.9 °F 10.0 °F 92% 30.34 in 2.5 mi WNW 3.5 mph - N/A   Mostly Cloudy
5:40 AM 15.1 °F - 14.0 °F 95% 30.33 in 1.8 mi Calm Calm - N/A   Scattered Clouds
5:43 AM 12.9 °F - 12.9 °F 100% 30.34 in 4.0 mi Calm Calm - N/A   Scattered Clouds
5:53 AM 12.0 °F - 9.0 °F 88% 30.50 in 6.0 mi Calm Calm - N/A   Scattered Clouds
6:13 AM 7.0 °F 0.1 °F 5.0 °F 92% 30.33 in 2.5 mi South 3.5 mph - N/A   Mostly Cloudy
6:21 AM 7.0 °F - 3.9 °F 87% 30.33 in 1.2 mi Calm Calm - N/A   Overcast
6:33 AM 10.0 °F 3.6 °F 9.0 °F 95% 30.33 in 0.5 mi West 3.5 mph - N/A Fog Light Freezing Fog
6:51 AM 14.0 °F - 12.2 °F 93% 30.32 in 2.0 mi Calm Calm - N/A   Mostly Cloudy
6:53 AM 14.0 °F - 12.9 °F 95% 30.48 in 5.0 mi Calm Calm - N/A   Mostly Cloudy
7:02 AM 8.1 °F -0.5 °F 7.0 °F 95% 30.32 in 3.0 mi ENE 4.6 mph - N/A   Scattered Clouds
7:04 AM 9.0 °F 0.6 °F 6.1 °F 88% 30.32 in 1.5 mi ENE 4.6 mph - N/A   Scattered Clouds
7:07 AM 9.0 °F 2.4 °F 6.1 °F 88% 30.33 in 0.8 mi NE 3.5 mph - N/A   Mist
7:16 AM 10.9 °F - 9.0 °F 92% 30.32 in 1.2 mi Calm Calm - N/A   Scattered Clouds
7:19 AM 10.9 °F - 10.0 °F 96% 30.32 in 4.0 mi Calm Calm - N/A   Partly Cloudy
7:53 AM 12.0 °F 5.9 °F 10.9 °F 95% 30.49 in 3.0 mi NNW 3.5 mph - N/A   Clear
8:06 AM 12.0 °F 5.9 °F 10.0 °F 92% 30.32 in 2.0 mi Variable 3.5 mph - N/A   Scattered Clouds
8:08 AM 12.9 °F 5.2 °F 10.9 °F 92% 30.32 in 1.0 mi WNW 4.6 mph - N/A   Mist
8:15 AM 12.9 °F 3.8 °F 12.0 °F 96% 30.32 in 0.5 mi WNW 5.8 mph - N/A Fog Light Freezing Fog
8:53 AM 12.9 °F 1.6 °F 12.0 °F 96% 30.49 in 0.2 mi WNW 8.1 mph - N/A Fog Light Freezing Fog
9:00 AM 15.1 °F 7.7 °F 15.1 °F 100% 30.34 in 2.5 mi SW 4.6 mph - N/A   Mostly Cloudy
9:07 AM 15.1 °F 7.7 °F 15.1 °F 100% 30.34 in 10.0 mi WSW 4.6 mph - N/A   Scattered Clouds
9:53 AM 18.0 °F 12.7 °F 17.1 °F 96% 30.52 in 10.0 mi WNW 3.5 mph - N/A   Clear
10:53 AM 23.0 °F - 21.9 °F 96% 30.49 in 10.0 mi Calm Calm - N/A   Clear
11:53 AM 21.0 °F 8.1 °F 19.0 °F 92% 30.51 in 10.0 mi North 13.8 mph - N/A   Clear
12:53 PM 30.9 °F 26.2 °F 24.1 °F 76% 30.42 in 10.0 mi SSE 4.6 mph - N/A   Clear
1:53 PM 30.0 °F 25.2 °F 25.0 °F 82% 30.42 in 10.0 mi NNW 4.6 mph - N/A   Clear
2:53 PM 28.0 °F 18.1 °F 23.0 °F 81% 30.44 in 10.0 mi NW 11.5 mph - N/A   Clear
3:53 PM 28.0 °F 18.6 °F 23.0 °F 81% 30.46 in 10.0 mi NNE 10.4 mph - N/A   Clear
4:53 PM 23.0 °F 14.7 °F 19.0 °F 85% 30.50 in 10.0 mi WSW 6.9 mph - N/A   Clear
5:53 PM 21.9 °F 17.2 °F 19.0 °F 89% 30.51 in 10.0 mi WSW 3.5 mph - N/A   Clear
6:53 PM 15.1 °F - 14.0 °F 95% 30.56 in 10.0 mi Calm Calm - N/A   Clear
7:53 PM 19.9 °F - 18.0 °F 92% 30.56 in 10.0 mi Calm Calm - N/A   Clear
8:53 PM 10.9 °F - 8.1 °F 88% 30.59 in 10.0 mi Calm Calm - N/A   Clear
9:53 PM 19.0 °F - 16.0 °F 88% 30.56 in 10.0 mi Calm Calm - N/A   Clear
10:53 PM 12.9 °F - 10.0 °F 88% 30.58 in 10.0 mi Calm Calm - N/A   Clear
11:53 PM 9.0 °F - 7.0 °F 92% 30.61 in 10.0 mi Calm Calm - N/A   Clear